Overview Statistics Trail Chart Weather Telemetry Raw packets
 

This is the latest recevied weather packets stored in our database for station/object KD8DNS. If no packets are shown the sender has not sent any weather packets the latest 10 day(s).

<< 47 48 49 50 51 52 53 >>
Time Temp. Humidity Pressure Rain* Wind** Luminosity Snow
1788352078 23.33° C 92% 1021.5 hPa 0 mm - 105 W/m² -
1788351788 23.33° C 92% 1021.5 hPa 0 mm - 41 W/m² -
1788351468 22.78° C 93% 1021.5 hPa 0 mm - 37 W/m² -
1788351163 22.78° C 94% 1021.5 hPa 0 mm - 34 W/m² -
1788350859 22.78° C 95% 1021.8 hPa 0 mm - 32 W/m² -
1788350555 22.22° C 96% 1021.6 hPa 0 mm - 24 W/m² -
1788350250 22.22° C 96% 1021.4 hPa 0 mm - 26 W/m² -
1788349946 22.22° C 97% 1021.3 hPa 0 mm - 22 W/m² -
1788349642 21.67° C 97% 1021.6 hPa 0 mm - 20 W/m² -
1788349337 21.67° C 97% 1021.2 hPa 0 mm - 17 W/m² -
1788349038 21.67° C 97% 1021.4 hPa 0 mm - 15 W/m² -
1788348727 21.67° C 97% 1021.2 hPa 0 mm - 12 W/m² -
1788348421 21.67° C 96% 1021.2 hPa 0 mm - 10 W/m² -
1788348119 21.67° C 96% 1021.3 hPa 0 mm - 7 W/m² -
1788347814 21.67° C 96% 1021.4 hPa 0 mm - 5 W/m² -
1788347509 21.67° C 96% 1021.2 hPa 0 mm - 3 W/m² -
1788347205 21.67° C 96% 1021.1 hPa 0 mm - 2 W/m² -
1788346901 21.67° C 96% 1021.1 hPa 0 mm - 0 W/m² -
1788346600 21.67° C 96% 1021.2 hPa 0 mm - 0 W/m² -
1788346296 21.67° C 96% 1021.2 hPa 0 mm - 0 W/m² -
1788345991 21.67° C 96% 1021.2 hPa 0 mm - 0 W/m² -
1788345686 21.67° C 96% 1021.2 hPa 0 mm - 0 W/m² -
1788345386 21.67° C 96% 1021.1 hPa 0 mm - 0 W/m² -
1788345081 21.67° C 95% 1021 hPa 0 mm - 0 W/m² -
1788344777 22.22° C 95% 1021.3 hPa 0 mm - 0 W/m² -

* Rain latest hour (hover to see other rain measurements)
** Current wind speed in m/s (hover to see current wind gust speed)